Regional Weather Roundup
Issued by NWS State College, PA

Home | Current Version | Previous Version | Text Only | Print | Product List | Glossary On
Versions: 1 2 3 4 5 6 7 8 9 10 11 12 13 14 15 16 17 18 19 20 21 22 23 24 25 26 27 28 29 30 31 32 33 34 35 36 37 38 39 40 41 42 43 44 45 46 47 48 49 50
000
ASUS41 KCTP 160403
RWRCTP

REGIONAL WEATHER ROUNDUP
NATIONAL WEATHER SERVICE STATE COLLEGE PA
1100 PM EST MON JAN 15 2018

Note: "fair" indicates few or no clouds below 12,000 feet with no
significant weather and/or obstructions to visibility.

* = STATION THAT DOES NOT REPORT PRECIPITATION /E.G. RAIN...SNOW...ETC/
    THUNDER OR FOG.

PAZ002>004-007>009-013>016-020>023-029>032-160500-
WESTERN PENNSYLVANIA

CITY           SKY/WX    TMP DP  RH WIND       PRES   REMARKS
ERIE           CLOUDY    25  19  78 S10       30.28F WCI  15
MEADVILLE      LGT SNOW  21  20  96 VRB3      30.24F VSB 1
FRANKLIN*      LGT SNOW  21  19  92 SE7       30.25F FOG     WCI  12
NEW CASTLE     LGT SNOW  26  25  96 VRB5      30.28S FOG
BEAVER COUNTY  NOT AVBL
BUTLER*        FLURRIES  23  21  92 E5        30.28S
PITTSBURGH INT MOCLDY    24  24 100 CALM      30.28R
PITTSBURGH     CLOUDY    25  22  88 SE8       30.27S
INDIANA*       CLOUDY    25  18  74 SE8       30.32F
LATROBE        CLOUDY    28  19  69 SE6       30.29F
WASHINGTON CO* NOT AVBL
$$

PAZ004>006-010>012-017>019-024>028-033>037-041-042-045-046-049>053-160500-
CENTRAL PENNSYLVANIA

CITY           SKY/WX    TMP DP  RH WIND       PRES   REMARKS
BRADFORD       LGT SNOW  17  14  88 SE8       30.24S FOG     WCI   7
DUBOIS         LGT SNOW  18  13  80 SE13      30.26S WCI   5
CLEARFIELD     LGT SNOW  18  16  92 NE3       30.33F FOG
JOHNSTOWN      CLOUDY    19  11  70 S7        30.25S WCI  10
ALTOONA        CLOUDY    22  16  78 S7        30.36S WCI  13
STATE COLLEGE  LGT SNOW  21  17  84 CALM      30.38S
WILLIAMSPORT   LGT SNOW  23  17  78 CALM      30.44S
SELINSGROVE    CLOUDY    23  19  85 CALM      30.47R
FT INDIANTOWN  CLOUDY    25  16  67 CALM      30.46R
CAPITAL CITY   CLOUDY    27  17  66 CALM      30.48R
HARRISBURG     CLOUDY    26  17  68 NW3       30.47R
YORK           CLOUDY    25  19  78 CALM      30.47R
$$

PAZ038>040-043-044-047-048-054-055-060>062-067>071-160500-
EASTERN PENNSYLVANIA

CITY           SKY/WX    TMP DP  RH WIND       PRES   REMARKS
SCRANTON       CLOUDY    23  15  71 CALM      30.42R
MOUNT POCONO   CLOUDY    16  13  88 E5        30.35F WCI   9
ALLENTOWN      CLOUDY    27  17  66 E5        30.46F
QUAKERTOWN*    CLOUDY    27  19  74 MISG      30.46F
READING        CLOUDY    26  20  77 NW3       30.47S
LANCASTER      CLOUDY    27  20  75 CALM      30.46S
COATESVILLE    CLOUDY    28  25  86 SE3       30.45F
POTTSTOWN      CLOUDY    27  21  78 CALM      30.48F
BLUE BELL      CLOUDY    28  23  80 E5        30.48F
DOYLESTOWN     CLOUDY    26  20  77 CALM      30.47F
WILLOW GROVE   NOT AVBL
NORTH PHILA    CLOUDY    30  23  75 NE7       30.50F
PHILADELPHIA   CLOUDY    29  22  75 NE3       30.50S
$$




USA.gov is the U.S. government's official web portal to all federal, state and local government web resources and services.